Regional Weather Roundup
Issued by NWS

Home | Current Version | Previous Version | Graphics & Text | Print | Product List | Glossary On
Versions: 1 2 3 4 5 6 7 8 9 10 11 12 13 14 15 16 17 18 19 20 21 22 23 24 25 26 27 28 29 30 31 32 33 34 35 36 37 38 39 40 41 42 43 44 45 46 47 48 49 50
000
ASUS43 KOAX 301010
RWRNE

WEATHER ROUNDUP FOR NEBRASKA
NATIONAL WEATHER SERVICE OMAHA NE
500 AM CDT SUN APR 30 2017

NOTES: SATELLITE DATA IS BEING USED TO AUGMENT CLOUD COVER ABOVE
       12000 FEET.
       "FAIR" INDICATES FEW OR NO CLOUDS BELOW 12,000 FEET WITH NO
       SIGNIFICANT WEATHER AND/OR OBSTRUCTIONS TO VISIBILITY.

  * THESE STATIONS DO NOT REPORT WEATHER SUCH AS RAIN...SNOW OR FOG.

NEZ001>004-019>022-054>056-301100-
NEBRASKA PANHANDLE

CITY           SKY/WX    TMP DP  RH WIND       PRES   REMARKS
SCOTTSBLUFF    CLOUDY    32  23  69 NW9       30.07R WCI  24
ALLIANCE       CLOUDY    31  25  78 N12       30.04R WCI  22
CHADRON        CLEAR     27  23  85 SW7       30.09R WCI  19
KIMBALL        CLOUDY    31  23  72 NW13      30.04F WCI  22
SIDNEY         CLOUDY    32  25  75 N16       30.01F WCI  21
$$

NEZ057>060-069>072-079>082-301100-
SOUTHWEST NEBRASKA

CITY           SKY/WX    TMP DP  RH WIND       PRES   REMARKS
NORTH PLATTE   CLOUDY    41  25  53 N17       29.91F
IMPERIAL       CLOUDY    38  26  62 N20       29.93F WCI  28
LEXINGTON      LGT RAIN  37  32  82 NE14      29.88R WCI  28
MCCOOK         MIX PCPN  36  33  89 N13       29.89R WCI  27
OGALLALA       CLOUDY    40  26  58 N17       29.97S WCI  31
$$

NEZ005>010-023>029-035>040-094-301100-
NORTH CENTRAL NEBRASKA

CITY           SKY/WX    TMP DP  RH WIND       PRES   REMARKS
VALENTINE      PTCLDY    40  21  46 N13       30.03F WCI  32
AINSWORTH      CLOUDY    39  28  64 N12       29.99F WCI  31
BROKEN BOW     CLOUDY    41  27  57 NE17G28   29.89F
O`NEILL        MOCLDY    41  26  53 NE9       29.97F
ORD            CLOUDY    40  29  64 NE15      29.90F WCI  32
THEDFORD       MOCLDY    38  27  63 N9        29.98F WCI  32
$$

NEZ041-046>049-061>064-073>077-083>087-301100-
SOUTH CENTRAL NEBRASKA

CITY           SKY/WX    TMP DP  RH WIND       PRES   REMARKS
GRAND ISLAND   LGT RAIN  35  35 100 NE23G30   29.84F WCI  23
AURORA         LGT RAIN  36  35  96 NE28G35   29.81F WCI  24
HASTINGS       LGT SNOW  36  33  89 NE29G37   29.80F FOG     WCI  23
HEBRON         LGT RAIN  37  37  98 NE25G32   29.73F WCI  26
HOLDREGE       LGT SNOW  33  32  96 N25G33    29.81F VSB 1   WCI  20
KEARNEY *      CLOUDY    34  28  80 N23       29.84F WCI  22
YORK           LGT RAIN  37  37 100 NE23G35   29.82F WCI  26
$$

NEZ011>018-030>034-042>045-301100-
NORTHEAST NEBRASKA

CITY           SKY/WX    TMP DP  RH WIND       PRES   REMARKS
NORFOLK        LGT RAIN  38  34  85 NE21      29.93  WCI  28
ALBION         RAIN      38  34  85 NE18      29.92F WCI  28
BLAIR          DRIZZLE   38  37  94 NE21G31   29.84F WCI  28
FREMONT        LGT RAIN  39  38  97 NE15G24   29.88F WCI  30
TEKAMAH        LGT RAIN  40  37  89 NE21      29.91F WCI  30
WAYNE          LGT RAIN  40  39  98 NE13      29.95F WCI  32
$$

NEZ050>053-065>068-078-088>093-301100-
SOUTHEAST NEBRASKA

CITY           SKY/WX    TMP DP  RH WIND       PRES   REMARKS
LINCOLN        LGT RAIN  39  38  96 NE22G29   29.83F FOG     WCI  29
OMAHA EPPLEY   LGT RAIN  40  35  83 NE17G25   29.86F WCI  31
BEATRICE       LGT RAIN  39  38  95 NE22G32   29.72F WCI  29
FALLS CITY     LGT RAIN  41  39  93 NE12      29.72F FOG
NEBRASKA CITY  LGT RAIN  39  39 100 NE22G28   29.78F WCI  28
PLATTSMOUTH    LGT RAIN  39  37  90 NE14G24   29.82F WCI  31
$$

NEZ044-045-051>053-067-301100-
OMAHA AREA

CITY           SKY/WX    TMP DP  RH WIND       PRES   REMARKS
OMAHA EPPLEY   LGT RAIN  40  35  83 NE17G25   29.86F WCI  31
BLAIR          DRIZZLE   38  37  94 NE21G31   29.84F WCI  28
FREMONT        LGT RAIN  39  38  97 NE15G24   29.88F WCI  30
MILLARD        DRIZZLE   41  39  92 NE10G17   29.85F
OFFUTT AFB     LGT RAIN  40  37  91 NE16G30   29.83F WCI  31
PLATTSMOUTH    LGT RAIN  39  37  90 NE14G24   29.82F WCI  31
WAHOO          DRIZZLE   39  37  92 NE24G31   29.85F WCI  28
$$



USA.gov is the U.S. government's official web portal to all federal, state and local government web resources and services.